Wind_Speed
63 60 49 49 53 50 52 48 50 50 47 45 46 46 47 50 52 55 56 55 56 56 51 51 51 50 49 49 48 47 48 52 47 42 44 46 49 50 52 51 49 51 54 57
61 53 56 58 58 58 62 55 49 52 54 52 46 47 49 52 55 58 60 63 61 57 54 53 55 53 49 50 47 45 46 44 43 42 43 44 44 47 50 52 54 54 57 60
56 48 55 57 53 52 51 55 50 50 49 51 52 50 51 54 59 63 68 68 63 62 59 56 52 50 49 47 44 43 43 41 40 40 43 45 47 48 50 55 60 61 61 63
58 58 60 59 56 53 50 53 54 55 51 52 55 55 58 63 66 63 63 63 64 60 57 54 52 47 40 39 39 40 40 40 41 44 44 47 49 50 53 57 61 66 69 70
53 57 62 57 53 52 50 52 53 51 54 58 61 64 62 64 63 61 63 64 62 60 56 53 49 45 38 37 40 42 44 44 47 51 48 49 51 55 59 63 67 69 71 75
59 54 54 44 47 50 51 54 49 50 53 55 57 61 60 60 61 61 63 62 60 56 55 50 46 48 47 46 47 48 49 48 44 51 55 58 59 63 68 70 71 72 78 79
58 59 52 53 57 57 61 47 48 51 54 57 53 53 56 55 57 58 58 58 54 53 50 48 48 44 43 46 44 44 48 51 54 56 59 62 67 72 75 77 79 80 81 84
52 55 52 57 61 58 54 54 52 52 50 52 54 53 53 54 52 52 53 51 49 45 44 47 46 43 42 45 49 52 53 57 59 61 68 70 75 80 84 81 83 85 88 89
56 48 46 51 55 56 52 52 52 51 52 49 47 46 47 46 47 49 49 45 44 45 44 46 45 47 51 54 57 60 63 66 69 72 79 85 84 83 83 85 89 95 97 93
48 44 45 47 51 53 53 51 52 55 47 47 47 47 46 46 46 43 46 51 49 48 48 48 52 54 58 61 65 68 70 74 78 85 90 90 90 92 93 96 99 103 95 81
49 49 46 45 46 45 44 47 49 47 46 47 46 46 45 45 45 46 45 43 45 48 51 54 60 63 69 73 77 80 83 87 91 93 92 94 97 98 101 103 101 90 74 69
45 37 39 38 35 35 42 44 42 46 49 46 47 42 42 40 41 44 46 48 51 55 57 61 65 69 74 77 84 88 92 93 91 93 97 100 104 105 103 87 72 60 53 50
32 35 38 34 37 38 37 41 43 43 44 47 43 42 41 45 48 49 52 56 58 61 67 70 74 79 84 83 85 86 89 95 99 101 102 97 85 71 61 51 43 40 38 44
31 30 30 29 33 36 41 44 42 41 44 46 47 48 48 50 54 58 62 67 70 75 79 80 78 77 79 84 88 92 96 97 94 81 65 55 48 45 43 40 39 41 46 50
26 27 30 32 36 38 40 41 45 45 44 44 47 49 51 55 58 61 67 72 73 73 75 77 79 82 85 88 88 83 72 60 54 53 54 52 46 41 38 36 35 36 38 42
32 29 31 36 40 44 45 43 43 44 45 47 50 54 59 64 68 69 69 69 70 73 75 79 81 81 77 64 58 55 56 56 53 49 46 44 40 38 37 36 36 34 34 33
47 40 35 34 37 39 40 42 45 46 48 52 56 59 63 64 65 66 66 70 73 76 76 72 62 54 55 57 56 53 50 49 47 45 45 43 43 41 40 39 38 38 39 38
37 35 38 37 38 40 42 45 46 49 53 57 60 61 61 61 63 66 69 71 68 61 54 52 54 56 53 52 50 48 47 46 45 44 43 42 42 40 40 39 38 37 36 35
39 38 40 41 41 44 45 48 50 53 52 51 53 57 60 62 65 63 57 51 49 50 52 51 50 49 46 45 45 46 47 46 46 45 45 44 43 42 41 40 39 38 37 36
41 41 43 45 47 49 48 47 45 47 49 52 56 58 59 56 47 43 45 47 46 46 46 43 44 45 46 48 49 50 50 50 49 49 48 48 47 45 44 43 42 40 39 37
42 42 44 47 47 46 42 42 45 48 52 55 56 48 39 36 40 41 42 42 40 40 41 43 45 46 48 50 51 52 53 53 54 54 53 53 52 50 49 48 46 44 42 40
42 42 42 42 39 39 41 44 48 51 48 39 33 32 35 37 37 36 35 37 39 41 44 46 49 51 53 55 56 57 58 58 57 57 56 56 55 53 51 49 47 45 45 43
33 33 33 35 39 42 45 44 41 35 29 29 31 34 33 32 31 33 35 38 41 45 48 52 54 56 58 60 61 61 61 60 60 60 59 58 57 55 53 50 47 44 42 41
31 33 36 39 39 36 31 30 29 28 29 29 29 27 27 28 31 34 38 42 46 49 52 54 57 59 61 61 61 61 61 60 60 59 58 57 56 55 54 52 49 46 42 40
31 31 30 24 21 20 19 18 17 19 20 20 21 23 26 30 34 38 42 46 49 52 55 58 60 61 60 60 60 60 59 57 54 50 47 45 44 44 44 45 44 44 44 41
22 21 20 19 18 18 17 16 13 13 15 18 21 24 29 34 37 40 44 48 51 55 58 59 59 59 59 59 58 54 49 43 39 36 34 32 30 29 28 29 31 33 35 37
19 18 17 15 16 16 12 10 11 12 16 19 24 28 32 35 38 42 46 50 54 57 58 58 57 58 57 55 49 44 39 34 30 27 24 22 21 19 17 16 17 19 22 26
Wind_Direction
249 246 244 245 248 252 253 254 257 261 264 265 270 278 276 279 284 285 286 288 290 293 291 289 293 293 292 286 280 278 279 285 289 275 270 271 273 273 276 281 284 283 285 282
251 240 239 245 245 246 250 248 261 264 266 271 272 271 274 279 283 283 285 287 291 294 294 293 294 292 289 288 282 276 280 285 288 285 282 279 277 281 285 289 292 291 290 292
237 236 233 234 232 246 254 253 254 263 266 266 267 270 274 277 278 281 283 285 289 290 292 292 288 288 285 284 287 288 286 284 283 281 282 284 285 287 289 292 293 292 294 295
238 234 238 253 250 250 254 250 256 254 259 262 268 273 275 275 279 281 283 284 285 289 290 290 289 284 281 280 281 282 282 284 285 284 285 293 297 297 296 295 295 295 294 295
233 241 256 258 259 254 257 257 257 258 261 266 270 273 278 278 279 280 281 281 283 287 289 286 283 279 276 276 278 278 277 280 285 286 287 283 284 285 286 288 289 291 292 294
247 246 254 258 250 251 250 263 262 266 268 271 272 271 274 277 278 280 282 281 283 286 286 278 272 272 271 274 275 275 277 281 285 288 282 283 284 287 288 288 290 290 291 292
242 249 258 258 253 248 269 274 270 268 269 269 274 273 276 276 277 278 279 281 283 287 280 273 274 273 268 270 272 272 275 279 282 284 286 287 289 291 291 289 289 293 294 296
247 249 257 255 260 268 275 274 273 276 276 273 277 277 276 277 276 274 276 279 283 281 278 276 275 273 277 280 277 278 279 283 284 286 290 290 292 294 298 297 298 297 297 295
251 258 264 266 266 268 270 269 269 277 279 277 277 277 277 277 278 278 280 279 283 283 280 276 270 271 281 284 285 285 281 281 283 288 294 295 297 296 297 296 295 295 296 295
251 263 267 269 270 270 271 276 276 277 274 277 278 280 280 281 278 275 278 280 277 276 275 278 282 283 284 285 290 293 293 292 291 291 296 299 298 298 296 296 295 295 295 290
256 265 267 269 271 273 272 270 270 267 273 279 277 279 283 283 277 280 279 281 279 278 278 279 283 279 282 285 287 290 295 296 297 298 298 297 295 295 295 294 293 293 288 279
256 263 266 270 260 262 268 267 264 266 275 278 282 279 284 286 287 283 279 283 287 290 290 288 287 288 287 287 288 293 295 296 296 296 294 294 295 295 295 296 294 288 282 276
254 260 262 263 260 262 256 264 273 280 278 282 282 278 285 290 291 291 292 294 295 294 294 295 294 293 293 295 294 293 293 294 294 294 293 296 298 297 295 295 289 282 276 273
249 255 254 259 265 258 264 267 271 275 281 280 280 280 283 296 302 298 296 295 293 291 289 292 295 294 294 294 294 292 292 293 295 299 300 300 301 300 297 293 287 281 271 271
245 253 264 263 263 265 269 270 274 275 279 278 278 278 279 289 293 291 289 291 293 293 292 291 291 291 291 291 293 296 300 301 300 300 298 297 298 299 299 297 294 292 290 284
241 264 275 273 271 271 271 271 271 276 281 284 286 286 285 285 287 292 293 291 291 292 292 292 292 293 296 298 299 299 298 296 297 298 297 298 298 297 295 294 295 297 296 295
251 268 274 277 277 273 273 276 278 280 283 286 287 287 288 291 292 290 291 292 291 291 292 294 296 297 298 298 298 298 299 300 301 301 301 302 302 301 299 298 296 294 291 290
276 283 278 277 277 276 277 279 281 283 284 286 288 289 290 289 290 290 289 290 292 295 297 297 298 298 298 297 299 301 301 300 299 299 299 299 298 296 294 293 292 291 293 294
278 278 278 278 276 276 277 278 279 281 284 285 286 288 288 287 287 289 293 295 296 296 296 297 297 298 299 300 301 300 300 299 299 299 298 296 295 293 292 291 289 287 286 286
272 274 276 275 275 274 275 277 279 281 283 285 286 286 286 288 292 295 296 295 296 298 298 300 302 303 304 303 303 302 301 300 299 297 295 294 293 290 288 286 283 282 281 280
267 267 267 269 269 273 277 280 281 283 284 283 284 286 289 293 297 297 297 299 301 303 304 305 304 305 305 305 304 302 301 299 297 295 293 291 288 286 284 282 280 278 275 273
257 259 263 266 269 272 275 278 278 278 281 282 283 287 292 296 297 299 302 304 306 307 307 307 307 307 306 305 304 303 301 298 295 292 290 287 285 283 281 279 277 274 271 268
251 256 261 268 270 271 272 275 277 277 276 280 285 291 295 297 302 305 307 308 308 310 310 310 309 308 306 306 305 303 300 298 295 293 290 288 285 282 279 276 274 271 269 266
254 259 262 265 269 272 272 271 270 274 279 287 293 295 301 306 308 310 311 312 312 312 311 311 310 310 310 308 306 304 302 299 297 294 291 287 283 279 275 271 268 265 262 261
254 257 261 260 259 267 284 276 270 273 283 289 296 306 308 310 314 316 315 314 314 315 314 314 314 313 312 310 309 307 306 303 301 298 295 291 286 280 274 269 264 259 255 253
246 247 246 251 256 271 276 278 283 290 299 304 309 312 315 316 316 316 316 317 318 318 317 317 317 316 316 315 315 314 312 310 308 306 305 303 300 293 283 274 266 260 253 248
235 244 245 249 264 268 272 284 294 302 308 315 317 316 315 316 317 319 320 322 322 321 321 322 321 322 322 322 322 320 317 315 313 312 312 313 313 308 300 289 276 264 256 249
Height
5707 5715 5721 5724 5728 5733 5733 5737 5733 5740 5739 5742 5742 5742 5739 5738 5737 5735 5731 5730 5729 5729 5727 5722 5718 5715 5711 5707 5704 5702 5702 5700 5700 5698 5696 5695 5693 5692 5689 5687 5685 5682 5679 5677
5693 5700 5706 5709 5713 5718 5718 5720 5722 5726 5729 5732 5730 5727 5727 5727 5725 5721 5718 5715 5713 5713 5713 5710 5706 5702 5700 5696 5693 5691 5689 5687 5686 5687 5688 5686 5683 5682 5679 5677 5674 5670 5666 5662
5679 5687 5689 5688 5698 5703 5708 5710 5715 5716 5722 5720 5717 5716 5716 5715 5711 5708 5704 5701 5699 5698 5698 5696 5693 5690 5686 5684 5682 5680 5679 5677 5676 5675 5674 5673 5671 5668 5665 5663 5659 5656 5652 5648
5667 5670 5670 5680 5690 5693 5695 5698 5700 5705 5706 5705 5704 5704 5702 5699 5695 5693 5691 5688 5685 5684 5682 5680 5677 5674 5672 5671 5669 5668 5667 5666 5665 5662 5661 5659 5656 5653 5650 5648 5644 5641 5637 5632
5654 5658 5664 5668 5671 5679 5683 5687 5690 5690 5691 5691 5689 5688 5685 5681 5680 5679 5676 5674 5671 5669 5667 5665 5662 5660 5659 5658 5657 5656 5655 5653 5651 5649 5647 5646 5644 5641 5637 5633 5629 5624 5619 5614
5644 5647 5648 5654 5661 5666 5667 5671 5678 5678 5679 5678 5675 5672 5670 5669 5666 5663 5660 5658 5656 5654 5652 5651 5650 5649 5648 5647 5645 5644 5642 5640 5638 5637 5634 5632 5629 5626 5622 5616 5611 5606 5601 5595
5635 5638 5640 5645 5649 5652 5656 5664 5666 5665 5664 5663 5661 5662 5659 5656 5654 5651 5648 5645 5642 5640 5640 5639 5638 5635 5634 5632 5630 5629 5628 5626 5623 5621 5618 5614 5610 5606 5602 5597 5591 5585 5579 5573
5625 5628 5628 5636 5640 5642 5646 5645 5646 5646 5647 5648 5648 5645 5644 5643 5640 5637 5635 5633 5631 5627 5625 5624 5624 5623 5621 5619 5617 5614 5612 5610 5607 5604 5601 5596 5590 5583 5577 5570 5564 5558 5551 5545
5615 5617 5620 5623 5627 5628 5630 5632 5632 5632 5632 5632 5630 5629 5628 5628 5626 5624 5623 5620 5617 5614 5613 5612 5610 5608 5606 5604 5602 5599 5596 5592 5588 5583 5578 5572 5566 5559 5552 5546 5540 5534 5525 5518
5604 5607 5609 5610 5612 5616 5618 5618 5618 5618 5618 5616 5615 5615 5615 5613 5611 5609 5609 5607 5605 5603 5600 5598 5597 5593 5591 5588 5585 5580 5576 5572 5567 5560 5554 5546 5538 5532 5525 5518 5511 5504 5495 5488
5591 5595 5598 5599 5601 5603 5603 5603 5603 5604 5603 5603 5603 5603 5602 5599 5598 5598 5596 5594 5592 5590 5587 5584 5581 5578 5574 5569 5564 5559 5555 5548 5541 5534 5525 5519 5509 5503 5494 5485 5478 5472 5466 5461
5580 5585 5585 5588 5589 5591 5591 5590 5589 5590 5590 5590 5590 5590 5589 5588 5586 5585 5583 5580 5578 5576 5571 5567 5563 5559 5554 5550 5544 5538 5531 5524 5515 5507 5499 5490 5480 5470 5462 5455 5449 5445 5442 5441
5568 5571 5573 5575 5577 5578 5579 5579 5578 5577 5577 5578 5579 5577 5575 5574 5570 5568 5567 5565 5562 5558 5554 5549 5545 5541 5535 5529 5521 5515 5506 5499 5490 5480 5471 5461 5453 5447 5441 5435 5432 5430 5429 5427
5557 5560 5562 5565 5566 5568 5569 5569 5570 5569 5568 5566 5565 5565 5564 5563 5560 5556 5552 5548 5544 5541 5536 5531 5526 5519 5513 5506 5498 5489 5480 5470 5461 5453 5447 5442 5437 5432 5427 5424 5420 5416 5415 5414
5547 5551 5554 5556 5558 5559 5559 5559 5559 5559 5559 5558 5556 5555 5553 5550 5546 5543 5539 5535 5531 5525 5519 5512 5505 5497 5489 5481 5472 5463 5455 5449 5444 5439 5434 5430 5425 5421 5417 5413 5409 5406 5403 5401
5538 5541 5543 5545 5547 5547 5547 5547 5548 5548 5546 5545 5543 5541 5539 5536 5532 5528 5524 5517 5511 5504 5497 5489 5481 5473 5465 5458 5452 5446 5442 5436 5431 5425 5422 5418 5413 5409 5406 5402 5399 5396 5393 5390
5529 5532 5532 5532 5533 5534 5534 5534 5534 5534 5533 5532 5530 5528 5525 5521 5515 5510 5503 5496 5489 5481 5474 5466 5459 5453 5448 5443 5438 5433 5427 5422 5417 5413 5409 5404 5400 5396 5393 5391 5387 5384 5382 5380
5517 5519 5521 5521 5521 5521 5522 5522 5521 5521 5520 5517 5515 5512 5507 5502 5496 5490 5482 5475 5467 5461 5455 5450 5445 5440 5435 5431 5426 5420 5415 5410 5405 5400 5396 5392 5388 5385 5382 5379 5376 5373 5371 5369
5505 5506 5507 5508 5508 5509 5510 5510 5509 5507 5505 5502 5499 5495 5490 5485 5477 5470 5463 5457 5453 5449 5443 5438 5433 5428 5423 5417 5412 5408 5402 5396 5391 5386 5382 5378 5375 5371 5368 5365 5363 5361 5360 5359
5493 5494 5495 5496 5497 5498 5498 5497 5495 5493 5491 5487 5483 5478 5472 5466 5460 5455 5451 5447 5442 5437 5432 5427 5421 5416 5409 5403 5398 5392 5386 5381 5376 5371 5367 5363 5359 5356 5353 5351 5350 5348 5348 5348
5480 5481 5483 5485 5486 5486 5485 5484 5482 5480 5476 5472 5467 5461 5457 5454 5451 5446 5442 5437 5432 5427 5421 5415 5409 5403 5396 5390 5383 5376 5370 5364 5359 5354 5349 5345 5342 5339 5337 5334 5333 5333 5334 5334
5469 5470 5472 5473 5474 5474 5473 5471 5468 5464 5461 5457 5454 5452 5448 5444 5440 5436 5432 5427 5422 5416 5409 5403 5396 5389 5381 5374 5367 5360 5353 5346 5340 5335 5330 5325 5322 5319 5317 5316 5316 5316 5317 5318
5459 5460 5462 5463 5463 5461 5459 5457 5455 5453 5451 5449 5446 5443 5439 5435 5431 5427 5423 5417 5411 5405 5397 5389 5382 5374 5365 5357 5349 5341 5333 5326 5319 5313 5308 5303 5300 5298 5296 5297 5298 5299 5300 5301
5449 5450 5450 5450 5449 5448 5447 5446 5445 5443 5443 5441 5438 5436 5432 5428 5424 5419 5413 5407 5400 5393 5385 5376 5367 5358 5348 5339 5330 5321 5312 5304 5297 5290 5285 5280 5277 5275 5274 5275 5277 5280 5282 5284
5438 5438 5439 5440 5441 5440 5439 5437 5435 5435 5434 5432 5430 5427 5425 5421 5415 5409 5403 5396 5389 5380 5371 5361 5351 5341 5331 5321 5311 5301 5291 5283 5275 5268 5262 5258 5254 5252 5252 5253 5255 5259 5263 5267
5430 5432 5433 5434 5435 5434 5432 5432 5430 5429 5427 5426 5424 5421 5416 5412 5407 5401 5394 5386 5377 5367 5357 5346 5336 5325 5314 5303 5292 5282 5273 5265 5259 5253 5249 5244 5241 5238 5237 5237 5239 5241 5245 5250
5424 5427 5428 5429 5428 5428 5427 5427 5426 5424 5422 5420 5417 5414 5410 5406 5400 5393 5385 5375 5365 5355 5344 5333 5321 5310 5299 5288 5277 5268 5260 5254 5249 5244 5241 5237 5234 5231 5230 5229 5230 5231 5234 5237